User: anonymous   Login
Location: Unspecified
(0.0000°N, 0.0000°E)
Time: 07:20:22
(UTC+00:00)
Language:

Vanguard 1 Rocket - Orbit

View from above orbital plane
View from above orbital plane
View from above satellite
View from above satellite

Ground track
Ground track

The orbit data is extracted from the following two-line orbital elements,

1 00016U 58002A   21292.81561368  .00000186  00000-0  26319-3 0  9995
2 00016  34.2600 181.7157 2027844 141.0318 235.5449 10.48773909510218
Epoch (UTC): 19 October 2021 19:34:29
Eccentricity: 0.2027844
inclination: 34.2600°
perigee height: 650 km
apogee height: 4226 km
right ascension of ascending node: 181.7157°
argument of perigee: 141.0318°
revolutions per day: 10.48773909
mean anomaly at epoch: 235.5449°
orbit number at epoch: 51021

The dashed part of the orbit path shows where the satellite is in the earth's shadow,  

DLR